Sneeuw/IJzel/Bevriezing van: 20-01-2020 04:00 tot: 09:00 waarschuwing voor: Sneeuw/IJzel/Bevriezing niveau: Geel info button

Onweer radar Meer informatie blitzortung!


waarschuwing voor winterse neerslag Meer informatie rain snow radar



Select another period ( hide this area )

Eenheden Periode Custom range Directly to
Metrisch Engels Beide
Dagelijkse Wekelijkse Maandelijkse Jaarlijkse
use both date-selectors for a custom range
previous Dag
With this date

WeatherUnderground graphs for this period ( click here )


Dagelijkse Samenvatting Maandag 20 januari 2020
Tijd Temp. ( °C ) Dew pt. ( °C ) Wind ( km/h ) van Windvlaag ( km/h ) Luchtdruk ( hPa ) Humid.( % ) Rainrate ( cm )
Hoog2,7 1,5 0,0 ( 0/0 ) 0,0 1047,0 93 -
Gemiddeld1,2 0,0 0,0 Kalm #82/82 0,0 1046,9 92 -
Laag-0,1 -1,2 -   0,0 1046,6 91 -
Dagelijkse Tabular details for Maandag 20 januari 2020
Tijd Temp. ( °C ) Dew pt. ( °C ) Wind ( km/h ) van Windvlaag ( km/h ) Luchtdruk ( hPa ) Humid.( % ) Rainrate ( cm )
00:00 2,7 1,4   Kalm   1047,0 91 -
00:05 2,6 1,3   Kalm   1047,0 91 -
00:10 2,5 1,2   Kalm   1047,0 91 -
00:15 2,4 1,1   Kalm   1047,0 91 -
00:20 2,3 1,0   Kalm   1047,0 91 -
00:25 2,2 0,9   Kalm   1047,0 91 -
00:30 2,1 0,8   Kalm   1047,0 91 -
00:35 2,0 0,7   Kalm   1047,0 91 -
00:40 1,9 0,6   Kalm   1047,0 91 -
00:45 1,8 0,5   Kalm   1047,0 91 -
00:50 1,7 0,4   Kalm   1046,6 91 -
00:55 1,6 0,3   Kalm   1046,6 91 -
01:00 1,5 0,2   Kalm   1046,6 91 -
01:05 1,4 0,1   Kalm   1046,6 91 -
01:10 1,3 0,0   Kalm   1046,6 91 -
01:15 1,3 0,0   Kalm   1046,6 91 -
01:20 1,2 -0,1   Kalm   1046,6 91 -
01:25 1,1 -0,2   Kalm   1046,6 91 -
01:30 1,0 -0,3   Kalm   1046,6 91 -
01:35 1,0 -0,3   Kalm   1047,0 91 -
01:40 0,9 -0,4   Kalm   1047,0 91 -
01:45 0,8 -0,4   Kalm   1047,0 92 -
01:50 0,8 -0,4   Kalm   1047,0 92 -
01:55 0,7 -0,5   Kalm   1047,0 92 -
02:00 0,7 -0,6   Kalm   1047,0 91 -
02:05 0,6 -0,5   Kalm   1047,0 92 -
02:10 0,6 -0,5   Kalm   1047,0 92 -
02:15 0,5 -0,6   Kalm   1047,0 92 -
02:20 0,4 -0,7   Kalm   1047,0 92 -
02:25 0,4 -0,7   Kalm   1047,0 92 -
02:30 0,3 -0,8   Kalm   1047,0 92 -
02:35 0,3 -0,8   Kalm   1047,0 92 -
02:40 0,2 -0,9   Kalm   1047,0 92 -
02:45 0,2 -0,9   Kalm   1047,0 92 -
02:50 0,1 -1,0   Kalm   1047,0 92 -
02:55 0,1 -1,0   Kalm   1047,0 92 -
03:00 0,1 -1,0   Kalm   1047,0 92 -
03:05 0,1 -1,0   Kalm   1047,0 92 -
03:10 0,1 -1,0   Kalm   1047,0 92 -
03:15 0,0 -1,1   Kalm   1047,0 92 -
03:20 0,0 -1,1   Kalm   1047,0 92 -
03:25 -0,1 -1,2   Kalm   1047,0 92 -
03:30 -0,1 -1,2   Kalm   1047,0 92 -
03:35 -0,1 -1,2   Kalm   1047,0 92 -
03:40 -0,1 -1,2   Kalm   1047,0 92 -
03:45 -0,1 -1,2   Kalm   1047,0 92 -
03:50 0,0 -1,1   Kalm   1046,6 92 -
03:55 0,1 -1,0   Kalm   1046,6 92 -
04:00 0,1 -1,0   Kalm   1047,0 92 -
04:05 0,2 -0,9   Kalm   1046,6 92 -
04:10 0,3 -0,8   Kalm   1047,0 92 -
04:15 0,4 -0,7   Kalm   1047,0 92 -
04:20 0,6 -0,5   Kalm   1047,0 92 -
04:25 0,8 -0,4   Kalm   1047,0 92 -
04:31 1,1 -0,1   Kalm   1047,0 92 -
04:36 1,2 0,0   Kalm   1047,0 92 -
04:41 1,3 0,1   Kalm   1047,0 92 -
04:46 1,4 0,2   Kalm   1047,0 92 -
04:51 1,4 0,2   Kalm   1047,0 92 -
04:56 1,6 0,4   Kalm   1047,0 92 -
05:01 1,6 0,4   Kalm   1047,0 92 -
05:06 1,6 0,4   Kalm   1047,0 92 -
05:11 1,6 0,4   Kalm   1047,0 92 -
05:16 1,6 0,4   Kalm   1047,0 92 -
05:21 1,7 0,5   Kalm   1047,0 92 -
05:26 1,7 0,5   Kalm   1047,0 92 -
05:31 1,7 0,7   Kalm   1047,0 93 -
05:36 1,7 0,7   Kalm   1047,0 93 -
05:41 1,7 0,5   Kalm   1047,0 92 -
05:46 1,7 0,5   Kalm   1047,0 92 -
05:51 1,7 0,7   Kalm   1047,0 93 -
05:56 1,8 0,6   Kalm   1047,0 92 -
06:01 1,8 0,6   Kalm   1047,0 92 -
06:06 1,9 0,7   Kalm   1047,0 92 -
06:11 2,0 0,8   Kalm   1047,0 92 -
06:16 2,2 1,2   Kalm   1047,0 93 -
06:21 2,2 1,0   Kalm   1047,0 92 -
06:26 2,3 1,1   Kalm   1047,0 92 -
06:31 2,3 1,1   Kalm   1047,0 92 -
06:36 2,4 1,4   Kalm   1047,0 93 -
06:41 2,4 1,4   Kalm   1047,0 93 -
06:46 2,5 1,5   Kalm   1047,0 93 -
Dagelijkse Samenvatting Maandag 20 januari 2020
Tijd Temp. ( °C ) Dew pt. ( °C ) Wind ( km/h ) van Windvlaag ( km/h ) Luchtdruk ( hPa ) Humid.( % ) Rainrate ( cm )
Hoog2,7 1,5 0,0 ( 0/0 ) 0,0 1047,0 93 -
Gemiddeld1,2 0,0 0,0 Kalm #82/82 0,0 1046,9 92 -
Laag-0,1 -1,2 -   0,0 1046,6 91 -
Dagelijkse Tabular details for Maandag 20 januari 2020
Tijd Temp. ( °C ) Dew pt. ( °C ) Wind ( km/h ) van Windvlaag ( km/h ) Luchtdruk ( hPa ) Humid.( % ) Rainrate ( cm )
00:00 2,7 1,4   Kalm   1047,0 91 -
00:05 2,6 1,3   Kalm   1047,0 91 -
00:10 2,5 1,2   Kalm   1047,0 91 -
00:15 2,4 1,1   Kalm   1047,0 91 -
00:20 2,3 1,0   Kalm   1047,0 91 -
00:25 2,2 0,9   Kalm   1047,0 91 -
00:30 2,1 0,8   Kalm   1047,0 91 -
00:35 2,0 0,7   Kalm   1047,0 91 -
00:40 1,9 0,6   Kalm   1047,0 91 -
00:45 1,8 0,5   Kalm   1047,0 91 -
00:50 1,7 0,4   Kalm   1046,6 91 -
00:55 1,6 0,3   Kalm   1046,6 91 -
01:00 1,5 0,2   Kalm   1046,6 91 -
01:05 1,4 0,1   Kalm   1046,6 91 -
01:10 1,3 0,0   Kalm   1046,6 91 -
01:15 1,3 0,0   Kalm   1046,6 91 -
01:20 1,2 -0,1   Kalm   1046,6 91 -
01:25 1,1 -0,2   Kalm   1046,6 91 -
01:30 1,0 -0,3   Kalm   1046,6 91 -
01:35 1,0 -0,3   Kalm   1047,0 91 -
01:40 0,9 -0,4   Kalm   1047,0 91 -
01:45 0,8 -0,4   Kalm   1047,0 92 -
01:50 0,8 -0,4   Kalm   1047,0 92 -
01:55 0,7 -0,5   Kalm   1047,0 92 -
02:00 0,7 -0,6   Kalm   1047,0 91 -
02:05 0,6 -0,5   Kalm   1047,0 92 -
02:10 0,6 -0,5   Kalm   1047,0 92 -
02:15 0,5 -0,6   Kalm   1047,0 92 -
02:20 0,4 -0,7   Kalm   1047,0 92 -
02:25 0,4 -0,7   Kalm   1047,0 92 -
02:30 0,3 -0,8   Kalm   1047,0 92 -
02:35 0,3 -0,8   Kalm   1047,0 92 -
02:40 0,2 -0,9   Kalm   1047,0 92 -
02:45 0,2 -0,9   Kalm   1047,0 92 -
02:50 0,1 -1,0   Kalm   1047,0 92 -
02:55 0,1 -1,0   Kalm   1047,0 92 -
03:00 0,1 -1,0   Kalm   1047,0 92 -
03:05 0,1 -1,0   Kalm   1047,0 92 -
03:10 0,1 -1,0   Kalm   1047,0 92 -
03:15 0,0 -1,1   Kalm   1047,0 92 -
03:20 0,0 -1,1   Kalm   1047,0 92 -
03:25 -0,1 -1,2   Kalm   1047,0 92 -
03:30 -0,1 -1,2   Kalm   1047,0 92 -
03:35 -0,1 -1,2   Kalm   1047,0 92 -
03:40 -0,1 -1,2   Kalm   1047,0 92 -
03:45 -0,1 -1,2   Kalm   1047,0 92 -
03:50 0,0 -1,1   Kalm   1046,6 92 -
03:55 0,1 -1,0   Kalm   1046,6 92 -
04:00 0,1 -1,0   Kalm   1047,0 92 -
04:05 0,2 -0,9   Kalm   1046,6 92 -
04:10 0,3 -0,8   Kalm   1047,0 92 -
04:15 0,4 -0,7   Kalm   1047,0 92 -
04:20 0,6 -0,5   Kalm   1047,0 92 -
04:25 0,8 -0,4   Kalm   1047,0 92 -
04:31 1,1 -0,1   Kalm   1047,0 92 -
04:36 1,2 0,0   Kalm   1047,0 92 -
04:41 1,3 0,1   Kalm   1047,0 92 -
04:46 1,4 0,2   Kalm   1047,0 92 -
04:51 1,4 0,2   Kalm   1047,0 92 -
04:56 1,6 0,4   Kalm   1047,0 92 -
05:01 1,6 0,4   Kalm   1047,0 92 -
05:06 1,6 0,4   Kalm   1047,0 92 -
05:11 1,6 0,4   Kalm   1047,0 92 -
05:16 1,6 0,4   Kalm   1047,0 92 -
05:21 1,7 0,5   Kalm   1047,0 92 -
05:26 1,7 0,5   Kalm   1047,0 92 -
05:31 1,7 0,7   Kalm   1047,0 93 -
05:36 1,7 0,7   Kalm   1047,0 93 -
05:41 1,7 0,5   Kalm   1047,0 92 -
05:46 1,7 0,5   Kalm   1047,0 92 -
05:51 1,7 0,7   Kalm   1047,0 93 -
05:56 1,8 0,6   Kalm   1047,0 92 -
06:01 1,8 0,6   Kalm   1047,0 92 -
06:06 1,9 0,7   Kalm   1047,0 92 -
06:11 2,0 0,8   Kalm   1047,0 92 -
06:16 2,2 1,2   Kalm   1047,0 93 -
06:21 2,2 1,0   Kalm   1047,0 92 -
06:26 2,3 1,1   Kalm   1047,0 92 -
06:31 2,3 1,1   Kalm   1047,0 92 -
06:36 2,4 1,4   Kalm   1047,0 93 -
06:41 2,4 1,4   Kalm   1047,0 93 -
06:46 2,5 1,5   Kalm   1047,0 93 -

Download your copy of this data-set  here

Our weather-data as stored at Weather Underground. Script ontwikkeld door Jim McMurry. Aangepast voor de template door Leuven-Template.eu

U vindt ons ook hier:

UK Metoffice

Weather Underground

AWEKAS